Location: Julian California
(33.0790°N, 116.6010°W)
Time: 14:18:39
(UTC-07:00)

Cosmos 1238 Rocket - Pass Details

Date: 14 June 2018
Orbit: 375 x 1042 km, 82.9° (Epoch: 19 June)

Event Time Altitude Azimuth Distance (km) Brightness Sun altitude
Exits shadow 22:15:52 25° 19° (NNE) 849 4.1 -23.1°
Drops below altitude 10° 22:17:14 10° 13° (NNE) 1,411 5.4 -23.3°
Sets 22:19:09 0° 10° (N) 2,245 6.6 -23.5°
